Showing default

YAM-8, 63254

Orbit data source: Space-Track

YAM-8, 63254 is a payload satellite owned by Loft Orbital (US) in SSO that was launched on Sat, 15 Mar 2025 UTC via an FALCON 9 launch vehicle from the Air Force Western Test Range (AFWTR). Payload-class satellites include a variety of spacecraft equipped with specific instruments for various scientific and technological missions. These include communications satellites like Starlink; space stations such as the ISS; scientific satellites like the Hubble; Earth observation satellites from companies like Planet Labs, Umbra, and HawkEye 360; GPS; miniature CubeSats for education and research; and military/defense satellites.

Loading next visibility...
Identifier
63254, 2025-052AW
Orbit
SSO
Country
Flag of USUS
Related business
Manufacturer
Airbus/Toulouse
Mission
Operational Commercial Technology
Bus & Motor
ARROW, Unknown motor
Mass
~150 kg wet, ~140 kg dry
Launch date (UTC)
2025-03-15 (7 months ago)
Launch vehicle
FALCON 9
Launch site
Air Force Western Test Range (AFWTR)
Object type
Payload
Rocket body
Debris
Shape & HBR
Trap Box + 2 Pan, 2.3 m
Radar Cross Section
2.032 m², Medium (>0.1 m² and < 1m²)

Expand to show TLE details & history
Last TLE update: 19 hours ago

TLE from 19 hours ago
0 YAM-8
1 63254U 25052AW  25287.67050342  .00007894  00000-0  50796-3 0  9993
2 63254  97.7101 182.6140 0001725 353.6533   6.4673 15.08656238 32209
Epoch: 2025-10-14T16:05Z
TLE epoch observation values (Epoch: 2025-10-14T16:05:31.495Z)
Latitude
-0.00002°
Longitude
-82.22282°
Altitude
542.185 km
Speed
7.592 km/s
True Right ascension
12h 10m 27s
True Declination
0° 00' 00"
Sunlit
Object was in daylight at epoch
Visualization orbit readout
Latitude
Unknown
Longitude
Unknown
Altitude
Unknown
Speed
Unknown
Apparent Right ascension
Unknown
Apparent Declination
Unknown
Sunlit
N/A
Visualization observer readout
Local Sidereal Time
05:49:05
Azimuth
Unknown
Elevation
Unknown
Doppler factor
Unknown
Orbital elements
Apogee altitude
538.492 km
Perigee altitude
536.106 km
Semi-major axis
6,915.436 km
Eccentricity
0.00017
Inclination
97.7101°
RAAN
182.614°
Arg. of periapsis
353.6533°
True anomaly
6.46953°
Mean anomaly
6.4673°
Eccentric anomaly
6.46841°
Mean motion
3.7741 °/min
Orbital period
95.39 mins
BSTAR
0.00050796
Loading maneuver chart data...
Computing Atmospheric mass density...
Loading historical data...
Loading historical data...
Loading historical data...
Loading historical data...
Loading historical data...
Loading historical data...
Loading historical data...

Documentation

Showing up to 5 results
|